Regional Weather Roundup
Issued by NWS

Home | Current Version | Previous Version | Text Only | Print | Product List | Glossary On
Versions: 1 2 3 4 5 6 7 8 9 10 11 12 13 14 15 16 17 18 19 20 21 22 23 24 25 26 27 28 29 30 31 32 33 34 35 36 37 38 39 40 41 42 43 44 45 46 47 48 49 50
000
ASUS45 KABQ 010301
RWRNM
NEW MEXICO REGIONAL WEATHER ROUNDUP
NATIONAL WEATHER SERVICE ALBUQUERQUE NM
900 PM MDT SUN APR 30 2017

NOTE: "FAIR" MEANS FEW OR NO CLOUDS BELOW 12,000 FEET AGL WITH NO
       SIGNIFICANT WEATHER OR OBSTRUCTIONS TO VISION.

      THIS PRODUCT IS RELEASED AS TWO VERSIONS.  ONE VERSION NEAR
      THE TOP OF THE HOUR CONTAINING PRELIMINARY DATA FROM ALBUQUERQUE
      AND OTHER STATIONS.  A FINAL VERSION WITH ADDITIONAL DATA IS
      ISSUED ABOUT 10 MINUTES AFTER THE HOUR.

NMZ501-503-504-510>518-010400-
NORTHWEST PLATEAU/NORTHCENTRAL MOUNTAINS

CITY           SKY/WX    TMP DP  RH WIND       PRES   REMARKS
FARMINGTON     FAIR      51  12  21 W10       30.02R
LOS ALAMOS     FAIR      49  15  26 SW5       30.04R
SANTA FE       FAIR      50  25  37 W14       29.99R
TAOS             N/A     46  16  29 W13       30.00R
ANGEL FIRE     FAIR      40  19  41 SW8       30.03R WCI  35

$$
NMZ402-403-502-505>509-010400-
WESTCENTRAL MOUNTAINS/SOUTHWEST MOUNTAINS

CITY           SKY/WX    TMP DP  RH WIND       PRES   REMARKS
GALLUP         FAIR      50  14  23 N6        30.11R
GRANTS         FAIR      50  16  26 NW10G20   30.09R
SILVER CITY    FAIR      58  12  16 W8        30.05R

$$
NMZ407-409-411-412-010400-
SOUTHERN DESERTS

CITY           SKY/WX    TMP DP  RH WIND       PRES   REMARKS
DEMING         FAIR      67   8  10 W14G25    29.99R
LAS CRUCES     FAIR      65  12  12 W13       29.99R
HOLLOMAN AFB   FAIR      63  23  21 SE8       29.99R
ALAMOGORDO     FAIR      54  28  37 SE9       29.97R
T OR C         FAIR      65  13  13 N7        29.98R

$$
NMZ519>523-010400-
CENTRAL VALLEYS/CENTRAL HIGHLANDS

CITY           SKY/WX    TMP DP  RH WIND       PRES   REMARKS
ALBUQUERQUE    FAIR      58  16  19 N14       30.01R
DOUBLE EAGLE   CLEAR     50  23  34 NW8       30.03R
MORIARTY ARPT  FAIR      51  21  31 NW18      30.01R
CLINES CORNERS FAIR      45  18  34 W17       30.02R
BELEN          FAIR      56  20  24 W8        30.01R
SOCORRO        FAIR      61  16  17 NW12      30.00R

$$
NMZ524>526-539-540-010400-
SOUTHCENTRAL MOUNTAINS

CITY           SKY/WX    TMP DP  RH WIND       PRES   REMARKS
RUIDOSO        NOT AVBL

$$
NMZ527>531-010400-
NORTHEAST HIGHLANDS/NORTHEAST PLAINS

CITY           SKY/WX    TMP DP  RH WIND       PRES   REMARKS
LAS VEGAS      FAIR      43  20  39 CALM      29.96R
RATON          FAIR      44  18  35 NW6       29.93R
CLAYTON        FAIR      41  26  55 W13       29.89R

$$
NMZ532>537-010400-
EASTCENTRAL PLAINS

CITY           SKY/WX    TMP DP  RH WIND       PRES   REMARKS
SANTA ROSA     FAIR      56  24  29 W15       29.89R
TUCUMCARI      FAIR      48  39  71 E9        29.86R
CANNON AFB     FAIR      49  40  72 SW8       29.88S
CLOVIS AIRPORT FAIR      48  34  57 SW5       29.89R

$$
NMZ028-029-538-010400-
SOUTHEAST PLAINS

CITY           SKY/WX    TMP DP  RH WIND       PRES   REMARKS
ROSWELL        FAIR      53  33  46 S7          N/A
ARTESIA        FAIR      59  28  31 W6        29.93R
CARLSBAD       FAIR      59  29  31 SW9       29.91R
HOBBS          FAIR      55  27  33 SW3       29.95S


$$



USA.gov is the U.S. government's official web portal to all federal, state and local government web resources and services.